Flag for Germany Weather past 2 weeks in Friesoythe, Lower Saxony, Germany

Now
61 °F

Passing clouds.


Feels Like: 61 °F
Forecast: 54 / 60 °F
Wind: 9 mph from Southwest

Location: Meppen-Mil

Current Time: Jul 8, 2015 at 7:18:33 AM

Latest Report: Jul 8, 2015 at 6:20 AM


Visibility: N/A

Pressure: 29.68 "Hg

Humidity: 72%

Dew point: 52 °F

Location of FriesoytheLocation

Historic Weather in Friesoythe — Graph

°F

Friesoythe temperature yesterday

Maximum temperature yesterday: 82 °F (at 5:20 PM)
Minimum temperature yesterday: 52 °F (at 3:20 AM)
Average temperature yesterday: 69 °F

Past Weeks' High & Low Weather Summary

 TemperatureHumidityPressure
High97 °F (Jul 2, 5:20 PM)100% (Jul 7, 6:20 AM)30.27 "Hg (Jul 7, 6:20 AM)
Low46 °F (Jun 23, 5:20 AM)28% (Jul 2, 3:20 PM)29.65 "Hg (Jul 8, 1:20 AM)
Average68 °F67%30.06 "Hg
* Reported Jun 23 5:20 AM — Jul 8 5:20 AM, Friesoythe, Weather by CustomWeather, © 2015

Note: Actual official high and low records may vary slightly from our data, if they occured in-between our weather recording intervals... More about our weather records

Advertising

Friesoythe weather history for previous 24 hours

 ConditionsComfort  
Time TempWeatherWind HumidityBarometerVisibility
5:20 AM
Wed, Jul 8
63 °FMild.8 mph73%29.68 "Hg4 mi
4:20 AM61 °FCool.7 mph72%29.68 "Hg4 mi
3:20 AM61 °FCool.8 mph77%29.68 "Hg5 mi
2:20 AM63 °FMild.9 mph68%29.68 "Hg5 mi
1:20 AM64 °FMild.9 mph64%29.65 "Hg4 mi
12:20 AM64 °FMild.7 mph68%29.68 "Hg6 mi
11:20 PM
Tue, Jul 7
66 °FMild.10 mph60%29.68 "Hg6 mi
10:20 PM70 °FMild.13 mph60%29.68 "Hg6 mi
9:20 PM70 °FMild.8 mph64%29.68 "Hg5 mi
8:20 PM73 °FMild.13 mph57%29.68 "Hg5 mi
7:20 PM77 °FWarm.12 mph44%29.68 "Hg6 mi
6:20 PM79 °FWarm.12 mph45%29.68 "Hg6 mi
5:20 PM82 °FPleasantly warm.7 mph37%29.68 "Hg5 mi
4:20 PM81 °FBroken clouds.6 mph42%29.71 "HgN/A
3:20 PM77 °FLight rain. Partly sunny.5 mph51%29.74 "HgN/A
2:20 PM81 °FLight rain. Partly sunny.3 mph37%29.77 "HgN/A
1:20 PM79 °FBroken clouds.8 mph34%29.80 "HgN/A
12:20 PM81 °FBroken clouds.6 mph34%29.80 "HgN/A
11:20 AM77 °FBroken clouds.8 mph39%29.83 "HgN/A
10:20 AM77 °FScattered clouds.6 mph44%29.86 "HgN/A
9:20 AM73 °FPassing clouds.5 mph50%29.89 "HgN/A
8:20 AM68 °FPassing clouds.3 mph64%29.92 "HgN/A
7:20 AM63 °FPassing clouds.2 mph73%29.92 "HgN/A
Weather by CustomWeather, © 2015

See weather overviewHow to use our weather pages